• Join FlightAware (Why Join?)
  • Login
  • US Flag 
05:25AM EDT


 

Airport Tracker/Info


-or-


 

Live Flight TrackerFlight Track Log ✈ N315CJ ✈ 07-Apr-2014 ✈ KYIP - KAPF

Flight Track Log - Related Links

Times and Time Zones

All times are in EDT time to prevent confusion due to time zone crossing. See the N315CJ flight status page for this flight to view local times or setup timezone preferences in your user account.

Time Position Orientation Groundspeed Altitude Reporting Facility
EDT Latitude Longitude Course Direction KTS MPH feet Rate Location/Type
11:45AM 42.2444 -83.5192 324° Northwest 169 194 1,300  Level Cleveland Center
11:46AM 42.2814 -83.5556 324° Northwest 210 242 4,600 2,880 Climbing Cleveland Center
11:46AM 42.2917 -83.5803 299° West 214 246 5,700 3,360 Climbing Cleveland Center
11:47AM 42.2619 -83.6642 244° Southwest 233 268 9,800 3,480 Climbing Cleveland Center
11:48AM 42.1967 -83.6661 181° South 260 299 12,900 3,000 Climbing Cleveland Center
11:49AM 42.1317 -83.6242 154° Southeast 260 299 16,000 2,940 Climbing Cleveland Center
11:50AM 42.0672 -83.6222 179° South 243 280 19,000 2,640 Climbing Cleveland Center
11:51AM 41.9992 -83.6389 190° South 248 285 21,500 2,400 Climbing Cleveland Center
11:52AM 41.9247 -83.6561 190° South 266 306 24,000 2,640 Climbing Cleveland Center
11:53AM 41.8322 -83.6794 191° South 278 320 27,000 2,640 Climbing Cleveland Center
11:54AM 41.7572 -83.6967 190° South 278 320 29,500 2,400 Climbing Cleveland Center
11:55AM 41.6861 -83.7144 191° South 267 307 32,000 2,400 Climbing Cleveland Center
11:56AM 41.6217 -83.7294 190° South 243 280 34,500 1,800 Climbing Cleveland Center
11:58AM 41.5036 -83.7575 190° South 214 246 37,500 1,260 Climbing Indianapolis Center
11:59AM 41.4422 -83.7722 190° South 218 251 38,300 780 Climbing Indianapolis Center
12:00PM 41.3764 -83.7883 190° South 232 267 39,100 720 Climbing Indianapolis Center
12:02PM 41.3086 -83.8033 189° South 238 274 39,800 360 Climbing Indianapolis Center
12:03PM 41.2247 -83.8231 190° South 257 296 40,000 60 Climbing Cleveland Center
12:04PM 41.1450 -83.8428 191° South 281 323 40,000 300 Level Cleveland Center
12:06PM 40.9653 -83.8600 184° South 335 386 41,000 660 Climbing Cleveland Center
12:07PM 40.8772 -83.8544 177° South 325 374 42,100 1,020 Climbing Cleveland Center
12:08PM 40.7911 -83.8397 173° South 319 367 43,100 900 Climbing Indianapolis Center
12:09PM 40.7100 -83.8272 173° South 301 346 43,900 420 Climbing Indianapolis Center
12:12PM 40.4522 -83.7855 173° South 306 352 45,000 120 Climbing FlightAware ADS-B (KPMH)
12:17PM 39.9835 -83.7103 173° South 358 412 45,000  Level FlightAware ADS-B (KPMH)
12:17PM 39.9286 -83.7016 173° South 362 417 45,000  Level FlightAware ADS-B (KPMH)
12:18PM 39.8735 -83.6928 173° South 364 419 45,000  Level FlightAware ADS-B (KPMH)
12:19PM 39.8139 -83.6833 173° South 363 418 45,000  Level FlightAware ADS-B (KPMH)
12:19PM 39.7461 -83.6726 173° South 362 417 45,000  Level FlightAware ADS-B (KPMH)
12:20PM 39.6804 -83.6624 173° South 360 414 45,000  Level FlightAware ADS-B (KPMH)
12:20PM 39.6264 -83.6540 173° South 358 412 45,000  Level FlightAware ADS-B (KPMH)
12:21PM 39.5776 -83.6463 173° South 359 413 45,000  Level FlightAware ADS-B (KPMH)
12:21PM 39.5237 -83.6378 173° South 359 413 45,000  Level FlightAware ADS-B (KPMH)
12:22PM 39.4731 -83.6298 173° South 361 415 45,000  Level FlightAware ADS-B (KPMH)
12:23PM 39.4037 -83.6190 173° South 363 418 45,000  Level FlightAware ADS-B (KPMH)
12:23PM 39.3343 -83.6082 173° South 363 418 45,000  Level FlightAware ADS-B (KPMH)
12:24PM 39.2798 -83.5996 173° South 363 418 45,000  Level FlightAware ADS-B (KPMH)
12:24PM 39.2148 -83.5895 173° South 362 417 45,000  Level FlightAware ADS-B (KPMH)
12:25PM 39.1353 -83.5772 173° South 362 417 45,000  Level FlightAware ADS-B (KPMH)
12:26PM 39.0642 -83.5660 173° South 363 418 45,000  Level FlightAware ADS-B (KPMH)
12:27PM 39.0086 -83.5575 173° South 363 418 45,000  Level FlightAware ADS-B (KPMH)
12:27PM 38.9470 -83.5480 173° South 365 420 45,000  Level FlightAware ADS-B (KPMH)
12:28PM 38.8869 -83.5387 173° South 365 420 45,000  Level FlightAware ADS-B (KPMH)
12:28PM 38.8265 -83.5294 173° South 366 421 45,000 -360 Level FlightAware ADS-B (KPMH)
12:29PM 38.7711 -83.5208 173° South 354 407 44,600 -780 Descending FlightAware ADS-B (KPMH)
12:30PM 38.7089 -83.5114 173° South 323 372 44,100 -780 Descending FlightAware ADS-B (KPMH)
12:30PM 38.6566 -83.5035 173° South 308 354 43,700 -660 Descending FlightAware ADS-B (KPMH)
12:31PM 38.6041 -83.4956 173° South 302 348 43,300 -840 Descending FlightAware ADS-B (KPMH)
12:31PM 38.5528 -83.4877 173° South 290 334 42,700 -900 Descending FlightAware ADS-B (KPMH)
12:32PM 38.5128 -83.4816 173° South 278 320 42,300 -720 Descending FlightAware ADS-B (KPMH)
12:33PM 38.4587 -83.4733 173° South 277 319 41,800 -780 Descending FlightAware ADS-B (KPMH)
12:33PM 38.4274 -83.4687 173° South 283 326 41,400 -660 Descending FlightAware ADS-B (KPMH)
12:34PM 38.3549 -83.4576 173° South 291 335 41,000 -300 Descending FlightAware ADS-B (KPMH)
12:35PM 38.3028 -83.4495 173° South 286 329 41,000  Level FlightAware ADS-B (KPMH)
12:35PM 38.2591 -83.4429 173° South 289 333 41,000  Level FlightAware ADS-B (KPMH)
12:36PM 38.2050 -83.4348 173° South 292 336 41,000  Level FlightAware ADS-B (KPMH)
12:37PM 38.1601 -83.4280 173° South 297 342 41,000  Level FlightAware ADS-B (KPMH)
12:37PM 38.0853 -83.4169 173° South 291 335 41,000  Level Indianapolis Center
12:38PM 38.0017 -83.4042 173° South 297 342 41,000  Level Indianapolis Center
12:39PM 37.9211 -83.3928 174° South 297 342 41,000  Level Indianapolis Center
12:41PM 37.8414 -83.3808 173° South 292 336 41,000 240 Level Indianapolis Center
12:42PM 37.7633 -83.3686 173° South 286 329 41,500 600 Climbing Indianapolis Center
12:43PM 37.6717 -83.3542 173° South 285 328 42,300 600 Climbing Indianapolis Center
12:44PM 37.5928 -83.3439 174° South 284 327 42,800 300 Climbing Indianapolis Center
12:45PM 37.5136 -83.3317 173° South 285 328 43,000 60 Climbing Indianapolis Center
12:46PM 37.4297 -83.3197 174° South 297 342 43,000  Level Indianapolis Center
12:47PM 37.3447 -83.3075 173° South 305 351 43,000 180 Level Indianapolis Center
12:48PM 37.2631 -83.2953 173° South 300 345 43,400 480 Climbing Indianapolis Center
12:49PM 37.1825 -83.2828 173° South 299 344 44,000 600 Climbing Indianapolis Center
12:50PM 37.0894 -83.2692 173° South 291 335 44,700 480 Climbing Indianapolis Center
12:51PM 37.0100 -83.2575 173° South 291 335 45,000 120 Climbing Indianapolis Center
12:52PM 36.9281 -83.2456 173° South 293 337 45,000  Level Indianapolis Center
12:53PM 36.8431 -83.2325 173° South 303 349 45,000  Level Indianapolis Center
12:54PM 36.7544 -83.2203 174° South 316 364 45,000  Level Indianapolis Center
12:56PM 36.5592 -83.1914 173° South 323 372 45,000  Level Indianapolis Center
12:57PM 36.4689 -83.1786 174° South 324 373 45,000  Level Indianapolis Center
12:58PM 36.3789 -83.1656 173° South 324 373 45,000  Level Indianapolis Center
12:59PM 36.2886 -83.1525 173° South 333 383 45,000  Level Atlanta Center
01:00PM 36.1928 -83.1408 174° South 327 376 45,000  Level Atlanta Center
01:01PM 36.1008 -83.1292 174° South 327 376 45,000  Level Atlanta Center
01:02PM 36.0089 -83.1147 173° South 333 383 45,000  Level Atlanta Center
01:07PM 35.4863 -83.0385 173° South 338 389 45,000  Level FlightAware ADS-B (KDZJ)
01:10PM 35.1749 -82.9949 173° South 340 391 45,000  Level FlightAware ADS-B (KDZJ)
01:11PM 35.1116 -82.9860 173° South 338 389 45,000  Level FlightAware ADS-B (KDZJ)
01:13PM 34.9199 -82.9594 173° South 325 374 45,000  Level FlightAware ADS-B (KDZJ)
01:14PM 34.8648 -82.9518 173° South 325 374 45,000  Level FlightAware ADS-B (KDZJ)
01:14PM 34.8134 -82.9447 173° South 322 371 45,000 -300 Level FlightAware ADS-B (KDZJ)
01:15PM 34.7440 -82.9350 173° South 308 354 44,600 -540 Descending FlightAware ADS-B (KDZJ)
01:16PM 34.6471 -82.9217 174° South 291 335 44,000 -540 Descending FlightAware ADS-B (KDZJ)
01:18PM 34.4798 -82.8987 173° South 312 359 43,000 -360 Descending FlightAware ADS-B (KDZJ)
01:19PM 34.3926 -82.8867 174° South 312 359 43,000  Level FlightAware ADS-B (KDZJ)
01:20PM 34.3919 -82.8858 174° South 315 362 43,000  Level Atlanta Center
01:21PM 34.3064 -82.8719 172° South 315 362 43,000  Level Atlanta Center
01:22PM 34.2186 -82.8631 175° South 315 362 43,000  Level Atlanta Center
01:23PM 34.1308 -82.8492 173° South 315 362 43,100 360 Climbing Atlanta Center
01:24PM 34.0533 -82.8403 175° South 315 362 43,800 720 Climbing Atlanta Center
01:25PM 33.9719 -82.8289 173° South 307 353 44,600 600 Climbing Atlanta Center
01:26PM 33.8883 -82.8175 174° South 301 346 45,000 180 Climbing Atlanta Center
01:27PM 33.8006 -82.8089 175° South 309 356 45,000  Level Atlanta Center
01:28PM 33.7128 -82.7950 173° South 314 361 45,000  Level Atlanta Center
01:29PM 33.6103 -82.7817 174° South 325 374 45,000  Level Atlanta Center
01:30PM 33.5206 -82.7706 174° South 331 381 45,000  Level Atlanta Center
01:31PM 33.4347 -82.7594 174° South 326 375 45,000  Level Atlanta Center
01:32PM 33.3428 -82.7483 174° South 326 375 45,000  Level Atlanta Center
01:33PM 33.2592 -82.7372 174° South 321 369 45,000  Level Atlanta Center
01:34PM 33.1736 -82.7236 172° South 315 362 45,000  Level Atlanta Center
01:35PM 33.0900 -82.7147 175° South 310 357 45,000  Level Atlanta Center
01:36PM 33.0022 -82.7014 173° South 310 357 45,000  Level Atlanta Center
01:37PM 32.9164 -82.6903 174° South 310 357 45,000  Level Atlanta Center
01:38PM 32.8286 -82.6767 173° South 310 357 45,000  Level Atlanta Center
01:39PM 32.7389 -82.6683 176° South 310 357 45,000  Level Atlanta Center
01:40PM 32.6469 -82.6597 175° South 321 369 45,000  Level Atlanta Center
01:41PM 32.5528 -82.6442 172° South 334 384 45,000  Level Atlanta Center
01:42PM 32.4711 -82.6281 171° South 334 384 45,000  Level Atlanta Center
01:43PM 32.3686 -82.6150 174° South 334 384 45,000  Level Atlanta Center
01:44PM 32.2747 -82.6042 174° South 334 384 45,000  Level Atlanta Center
01:46PM 32.0658 -82.5764 174° South 344 396 45,000  Level Jacksonville Center
01:47PM 31.9656 -82.5644 174° South 349 402 45,000  Level Jacksonville Center
01:48PM 31.8697 -82.5500 173° South 349 402 45,000  Level Jacksonville Center
01:49PM 31.7714 -82.5383 174° South 354 407 45,000  Level Jacksonville Center
01:50PM 31.6608 -82.5239 174° South 354 407 45,000  Level Jacksonville Center
01:51PM 31.5625 -82.5097 173° South 354 407 45,000  Level Jacksonville Center
01:52PM 31.4603 -82.4883 170° South 360 414 45,000  Level Jacksonville Center
01:53PM 31.3619 -82.4569 165° South 371 427 45,000  Level Jacksonville Center
01:54PM 31.2617 -82.4333 169° South 371 427 45,000  Level Jacksonville Center
01:55PM 31.1592 -82.4069 168° South 371 427 45,000  Level Jacksonville Center
02:02PM 30.4965 -82.2180 167° South 381 438 45,000  Level FlightAware ADS-B (KMCO)
02:03PM 30.4090 -82.1938 167° South 380 437 45,000  Level FlightAware ADS-B (KMCO)
02:03PM 30.3614 -82.1807 167° South 382 440 45,000  Level FlightAware ADS-B (KMCO)
02:04PM 30.3007 -82.1640 166° South 384 442 45,000  Level FlightAware ADS-B (KMCO)
02:04PM 30.2270 -82.1438 167° South 386 444 45,000  Level FlightAware ADS-B (KMCO)
02:05PM 30.1474 -82.1249 171° South 379 436 45,000  Level FlightAware ADS-B (KMCO)
02:06PM 30.0921 -82.1140 170° South 382 440 45,000  Level FlightAware ADS-B (KMCO)
02:06PM 30.0392 -82.1032 170° South 385 443 45,000  Level FlightAware ADS-B (KMCO)
02:07PM 29.9758 -82.0903 170° South 387 445 45,000  Level FlightAware ADS-B (KMCO)
02:07PM 29.9279 -82.0806 170° South 389 448 45,000  Level FlightAware ADS-B (KMCO)
02:08PM 29.8708 -82.0692 170° South 391 450 45,000  Level FlightAware ADS-B (KMCO)
02:09PM 29.7914 -82.0532 170° South 392 451 45,000  Level FlightAware ADS-B (KMCO)
02:09PM 29.7324 -82.0412 170° South 395 455 45,000  Level FlightAware ADS-B (KMCO)
02:10PM 29.6213 -82.0190 170° South 395 455 45,000 -60 Level FlightAware ADS-B (KMCO)
02:11PM 29.5064 -81.9961 170° South 392 451 44,900 -600 Descending FlightAware ADS-B (KMCO)
02:12PM 29.4361 -81.9820 170° South 390 449 43,900 -1,620 Descending FlightAware ADS-B (KMCO)
02:12PM 29.3678 -81.9684 170° South 392 451 42,800 -2,040 Descending FlightAware ADS-B (KMCO)
02:13PM 29.3147 -81.9579 170° South 398 458 41,800 -2,160 Descending FlightAware ADS-B (KMCO)
02:14PM 29.2439 -81.9440 170° South 392 451 40,300 -2,100 Descending FlightAware ADS-B (KMCO)
02:14PM 29.1861 -81.9325 170° South 385 443 39,300 -2,040 Descending FlightAware ADS-B (KMCO)
02:15PM 29.1316 -81.9218 170° South 382 440 38,200 -2,040 Descending FlightAware ADS-B (KMCO)
02:15PM 29.0725 -81.9102 170° South 383 441 37,100 -2,040 Descending FlightAware ADS-B (KMCO)
02:16PM 29.0047 -81.8967 170° South 393 452 35,800 -2,160 Descending FlightAware ADS-B (KMCO)
02:16PM 28.9439 -81.8848 170° South 401 461 34,600 -2,220 Descending FlightAware ADS-B (KMCO)
02:17PM 28.8633 -81.8689 170° South 410 472 32,900 -2,160 Descending FlightAware ADS-B (KMCO)
02:18PM 28.7843 -81.8534 170° South 408 470 31,500 -2,160 Descending FlightAware ADS-B (KMCO)
02:18PM 28.7178 -81.8401 170° South 404 465 30,200 -2,220 Descending FlightAware ADS-B (KMCO)
02:19PM 28.6617 -81.8290 170° South 401 461 29,100 -2,220 Descending FlightAware ADS-B (KMCO)
02:20PM 28.5871 -81.8142 170° South 393 452 27,600 -1,560 Descending FlightAware ADS-B (KMCO)
02:20PM 28.5174 -81.7968 165° South 391 450 27,000 -480 Descending FlightAware ADS-B (KMCO)
02:21PM 28.4355 -81.7735 166° South 397 457 26,900 -540 Descending FlightAware ADS-B (KMCO)
02:22PM 28.3664 -81.7539 166° South 396 456 26,300 -1,020 Descending FlightAware ADS-B (KMCO)
02:22PM 28.3109 -81.7382 166° South 394 453 25,800 -1,080 Descending FlightAware ADS-B (KMCO)
02:23PM 28.2344 -81.7166 166° South 392 451 25,000 -1,200 Descending FlightAware ADS-B (KMCO)
02:24PM 28.1643 -81.6967 166° South 380 437 24,200 -1,200 Descending FlightAware ADS-B (KMCO)
02:24PM 28.1117 -81.6818 166° South 372 428 23,600 -1,140 Descending FlightAware ADS-B (KMCO)
02:25PM 28.0601 -81.6706 178° South 357 411 23,100 -1,140 Descending FlightAware ADS-B (KMCO)
02:25PM 27.9996 -81.6628 170° South 365 420 22,300 -1,140 Descending FlightAware ADS-B (KMCO)
02:26PM 27.9420 -81.6514 170° South 361 415 21,800 -1,080 Descending FlightAware ADS-B (KMCO)
02:27PM 27.8781 -81.6394 171° South 359 413 21,100 -1,140 Descending FlightAware ADS-B (KMCO)
02:27PM 27.8279 -81.6300 171° South 356 410 20,500 -1,200 Descending FlightAware ADS-B (KMCO)
02:28PM 27.7779 -81.6209 171° South 354 407 19,900 -1,320 Descending FlightAware ADS-B (KMCO)
02:28PM 27.7292 -81.6120 171° South 349 402 19,200 -1,320 Descending FlightAware ADS-B (KMCO)
02:29PM 27.6742 -81.6019 171° South 343 395 18,500 -1,320 Descending FlightAware ADS-B (KMCO)
02:29PM 27.6267 -81.5933 171° South 340 391 17,800 -1,320 Descending FlightAware ADS-B (KMCO)
02:30PM 27.5593 -81.5811 171° South 324 373 16,900 -1,200 Descending FlightAware ADS-B (KMCO)
02:30PM 27.5142 -81.5729 171° South 319 367 16,300 -1,200 Descending FlightAware ADS-B (KMCO)
02:31PM 27.4675 -81.5644 171° South 329 379 15,700 -1,260 Descending FlightAware ADS-B (KMCO)
02:31PM 27.4259 -81.5570 171° South 338 389 15,000 -1,200 Descending FlightAware ADS-B (KMCO)
02:32PM 27.3611 -81.5452 171° South 329 379 14,300 -1,140 Descending FlightAware ADS-B (KMCO)
02:33PM 27.3203 -81.5379 171° South 321 369 13,700 -1,320 Descending FlightAware ADS-B (KMCO)
02:33PM 27.2745 -81.5297 171° South 310 357 13,000 -1,320 Descending FlightAware ADS-B (KMCO)
02:34PM 27.2322 -81.5222 171° South 303 349 12,400 -1,200 Descending FlightAware ADS-B (KMCO)
02:34PM 27.1794 -81.5128 171° South 303 349 11,600 -1,200 Descending FlightAware ADS-B (KMCO)
02:35PM 27.0752 -81.4940 171° South 311 358 10,200 -720 Descending FlightAware ADS-B (KMCO)
02:36PM 26.9880 -81.4706 157° South 292 336 10,000 -180 Descending FlightAware ADS-B (KMCO)
02:37PM 26.9504 -81.4522 156° South 295 339 10,000  Level FlightAware ADS-B (KMCO)
02:38PM 26.8576 -81.4062 156° South 295 339 10,000  Level FlightAware ADS-B (KMCO)
02:40PM 26.7722 -81.3889 156° South 288 331 10,000  Level Miami Center
02:41PM 26.6950 -81.3928 183° South 276 318 10,000 -540 Level Miami Center
02:42PM 26.6072 -81.3989 184° South 281 323 9,000 -1,020 Descending Miami Center
02:43PM 26.5186 -81.4000 181° South  Level FlightAware Approximate
02:50PM 26.1500 -81.7667 246° West  Level FlightAware Approximate
02:51PM 26.1524 -81.7756 246° West  Level Estimated
02:52PM 26.1524 -81.7756 246° West  Level Estimated
02:53PM 26.1524 -81.7756 246° West  Level Estimated
02:54PM 26.1524 -81.7756 246° West  Level Estimated
02:55PM 26.1524 -81.7756 246° West  Level Estimated
02:56PM 26.1524 -81.7756 246° West  Level Estimated
02:57PM 26.1524 -81.7756 246° West  Level Estimated
02:58PM 26.1524 -81.7756 246° West  Level Estimated